Wind_Speed
18 18 18 17 14 11 12 11 7 5 6 8 10 12 9 4 5 6 6 7 6 8 7 5 3 2 1 4 5 6 6 7 5 7 7 9 10 11 12 15 18 17 12
19 19 19 20 17 14 13 14 11 6 4 5 6 8 5 3 2 3 0 0 1 3 3 2 1 2 5 7 8 9 8 10 9 9 11 12 15 17 15 16 17 16 14
17 16 17 18 18 17 16 15 14 11 5 7 4 3 5 4 3 3 2 1 2 2 2 3 4 5 6 8 10 12 14 12 13 14 15 15 16 15 16 15 17 19 18
17 14 13 13 14 15 17 16 17 15 13 9 7 4 3 2 2 2 4 2 2 3 2 3 4 7 9 10 11 12 13 14 14 17 16 15 17 17 17 18 18 18 17
21 18 16 17 19 17 16 16 17 18 14 12 9 5 3 3 2 1 2 3 4 6 5 5 8 10 12 13 13 14 14 15 14 14 17 16 18 19 17 18 17 16 14
19 19 18 19 21 22 20 20 19 18 18 14 11 8 6 4 3 1 1 4 5 7 9 10 12 12 14 15 16 17 18 18 19 17 18 18 18 19 20 17 16 15 12
18 17 15 18 22 24 23 22 21 21 19 18 15 12 10 7 5 2 1 2 4 6 6 8 10 11 12 13 14 16 18 17 19 19 19 19 19 20 20 19 18 14 11
18 16 16 19 19 20 20 20 20 19 18 18 16 13 11 9 7 6 5 4 4 6 6 7 9 11 13 14 14 15 17 18 20 20 19 19 20 21 22 20 20 17 12
18 16 17 18 18 17 16 16 16 16 15 15 14 13 12 10 10 10 10 9 9 11 13 13 13 14 16 16 17 18 18 18 19 19 21 21 21 22 22 22 22 21 19
16 16 16 17 15 14 14 15 17 17 15 13 12 11 12 13 15 16 16 17 19 20 18 18 19 20 20 21 23 24 24 24 24 22 21 22 23 24 23 24 25 25 24
13 14 14 14 15 13 13 14 15 15 16 16 16 16 17 17 17 17 17 17 21 27 27 25 26 25 23 27 30 31 31 30 29 29 26 24 24 24 24 25 26 28 28
13 9 10 13 13 12 13 13 14 16 16 17 18 18 17 17 18 20 22 23 20 25 26 28 31 29 30 29 31 32 34 37 35 31 32 30 28 28 27 25 27 30 30
8 6 9 9 8 9 11 13 13 15 16 17 18 19 18 19 22 26 28 28 35 40 25 35 27 34 30 31 34 26 39 42 41 36 34 35 35 33 32 33 29 27 30
9 6 8 10 10 11 12 14 13 14 15 17 17 16 19 21 21 24 27 29 29 29 31 33 21 26 22 24 24 27 30 25 32 34 37 39 41 43 39 38 37 34 33
12 10 11 12 13 15 16 17 18 18 17 19 20 20 23 25 25 29 32 30 29 29 29 30 27 24 21 23 27 27 24 23 27 28 29 36 34 37 45 46 41 38 37
13 13 14 14 16 18 21 24 25 25 25 25 25 26 28 30 33 33 34 34 32 31 29 26 25 26 28 29 29 28 28 30 31 30 29 28 31 32 30 39 45 46 46
13 13 12 13 15 17 20 23 24 25 25 26 26 27 30 33 34 35 35 34 33 33 33 32 29 28 27 28 32 33 33 31 30 30 32 31 31 32 33 34 41 48 50
12 13 12 14 16 16 19 22 25 27 27 26 26 28 30 33 34 34 33 33 34 33 30 29 28 25 25 26 26 28 30 28 26 27 32 33 33 32 34 34 36 39 40
13 12 13 14 15 16 19 22 25 29 31 29 28 29 30 31 32 33 33 34 32 31 30 27 21 18 18 19 22 26 29 30 31 30 30 33 33 34 36 42 41 38 44
13 13 13 14 15 17 20 23 26 29 32 32 31 30 31 32 33 32 33 33 31 29 27 25 22 23 23 23 22 21 23 25 26 29 29 28 28 40 51 31 34 35 37
14 13 14 16 18 19 21 25 28 31 34 34 32 31 31 31 31 30 31 28 25 23 24 24 24 24 26 26 28 29 29 28 28 28 29 26 17 26 27 34 30 27 29
14 17 18 20 22 23 24 27 30 34 35 34 33 32 32 31 29 29 28 25 21 21 23 23 24 25 27 29 29 29 30 31 30 29 27 25 25 23 25 26 27 26 23
16 18 20 22 24 25 28 31 33 35 34 34 33 32 31 29 29 28 27 25 23 24 26 27 27 27 28 30 32 34 36 36 35 35 34 32 29 29 27 27 29 27 26
19 20 22 24 26 28 31 32 33 34 33 34 32 32 31 30 29 26 27 25 24 25 28 29 30 31 33 34 37 39 40 41 41 39 37 35 35 32 30 31 32 31 31
22 24 26 27 28 29 30 31 31 33 33 33 32 33 32 30 28 27 26 24 25 27 30 32 34 36 37 41 44 46 46 41 39 38 38 38 37 37 37 35 34 36 37
24 25 24 25 27 28 29 30 32 32 33 33 33 34 33 32 30 28 26 27 29 31 33 35 37 39 43 46 48 49 41 32 29 28 29 30 31 33 33 35 37 35 35
Wind_Direction
81 75 78 75 70 64 56 57 60 78 100 107 125 129 129 128 110 112 105 104 108 108 115 131 181 202 231 229 287 269 267 274 287 288 290 290 303 296 300 297 286 283 245
77 77 74 70 71 72 69 64 75 93 118 131 130 127 138 148 133 159 129 154 142 113 121 122 241 273 276 261 271 276 289 276 280 282 280 283 287 292 298 307 303 297 275
84 77 72 68 66 69 71 65 80 74 81 141 142 92 124 144 128 129 119 76 336 10 290 280 269 274 280 279 290 273 277 269 280 274 276 284 285 296 302 298 294 300 309
91 84 72 70 71 66 68 64 66 83 84 109 86 134 194 189 134 75 69 10 336 313 228 228 275 276 273 274 277 274 282 267 272 279 276 280 281 291 296 300 302 297 296
87 89 80 74 73 67 62 62 58 71 86 94 92 80 69 32 49 203 220 253 263 281 276 262 255 265 279 281 278 280 281 282 280 281 283 283 288 291 290 291 293 294 282
82 79 76 73 71 67 62 60 61 59 61 70 73 86 108 128 126 174 212 255 267 268 275 280 284 281 280 283 283 281 283 281 282 278 276 278 280 283 282 284 289 297 282
74 72 68 66 61 60 56 55 55 53 52 55 55 57 55 52 62 81 197 268 292 277 284 283 282 281 282 283 283 282 281 278 277 278 278 276 273 274 277 278 281 288 287
68 65 61 60 58 53 45 40 40 45 45 45 43 42 39 35 26 17 9 350 311 301 295 274 273 268 265 263 267 273 276 276 275 274 275 276 277 278 276 271 274 277 273
61 56 53 48 42 37 31 30 29 29 28 26 24 23 19 11 2 350 336 326 316 314 307 303 293 286 282 281 278 270 266 261 262 265 267 267 269 269 270 271 271 271 269
53 51 47 43 37 28 19 10 5 3 4 1 358 354 350 346 341 332 325 324 320 313 307 303 299 292 288 290 281 275 273 273 269 261 257 262 265 267 269 271 272 272 268
52 44 41 37 35 21 8 2 355 349 344 339 333 330 331 333 328 321 304 299 306 307 299 294 288 280 276 273 274 277 277 271 269 271 268 261 256 259 265 266 267 267 268
53 38 29 32 23 5 359 354 348 342 338 333 331 330 331 331 328 322 312 282 276 276 277 279 272 267 267 271 268 272 274 272 270 270 273 272 269 267 262 261 264 267 267
65 9 11 21 9 353 348 352 353 345 341 340 340 337 337 331 323 318 316 333 324 330 335 333 298 272 246 264 263 285 276 270 260 260 266 272 273 270 269 267 262 262 266
2 6 354 1 4 359 358 359 359 354 346 338 331 327 320 317 317 315 318 321 318 323 326 324 351 4 308 308 305 304 312 274 262 263 266 270 270 267 263 262 264 265 266
338 344 349 357 1 359 357 357 359 359 354 341 335 330 326 323 322 321 323 325 323 323 323 323 319 319 308 304 303 305 301 295 289 283 284 271 274 275 263 260 260 258 258
334 335 341 350 351 349 351 350 351 350 348 341 332 328 325 325 325 324 325 326 325 323 322 320 311 305 301 304 301 301 302 300 295 291 287 289 283 280 280 264 258 260 264
321 323 324 334 338 342 343 344 343 341 338 334 328 326 325 323 323 324 325 325 323 323 322 318 313 308 304 297 302 305 303 301 298 297 293 287 278 277 274 269 262 261 261
312 312 317 326 330 335 343 346 346 344 338 332 327 324 323 323 323 323 322 320 320 321 323 320 319 315 309 301 296 292 293 293 292 295 300 291 284 278 270 278 279 271 265
306 303 310 315 321 332 338 342 343 344 341 335 330 327 324 323 322 322 321 322 327 331 332 334 336 335 328 318 306 301 300 301 305 295 294 299 291 279 271 274 270 275 271
296 295 297 306 324 329 332 333 335 338 338 335 333 329 327 323 323 323 325 326 332 336 341 346 351 351 347 341 334 323 315 311 313 310 302 302 302 278 261 262 250 267 277
289 287 297 318 324 322 324 329 331 333 333 333 332 330 326 325 324 324 325 326 332 334 338 343 344 343 341 339 337 334 334 329 320 317 318 321 287 301 291 273 298 310 303
289 301 310 316 316 319 325 329 329 329 330 330 328 328 326 324 323 323 325 327 326 325 331 336 338 338 335 333 331 329 327 327 326 324 321 317 309 298 293 297 302 303 307
296 301 305 308 311 317 322 325 325 326 328 328 327 326 326 324 325 323 324 326 321 318 322 324 328 326 324 323 322 321 318 316 313 311 309 308 304 300 297 292 292 297 299
300 304 307 310 314 318 319 320 321 324 326 328 329 327 327 325 324 321 321 318 318 318 319 322 324 324 323 322 320 318 315 312 308 304 300 297 296 296 290 288 290 290 291
304 307 310 313 313 313 315 317 319 323 325 328 328 326 325 323 319 317 318 317 320 322 321 320 320 320 320 321 320 319 315 311 305 302 300 300 298 296 294 293 287 286 285
301 307 309 308 309 311 313 315 319 322 326 326 325 323 322 319 316 317 315 319 320 319 318 318 318 319 320 321 320 319 318 318 318 317 316 312 307 302 298 294 292 289 285
Height
5918 5917 5916 5915 5914 5912 5910 5909 5910 5912 5913 5913 5911 5912 5914 5916 5918 5918 5919 5922 5922 5922 5924 5925 5927 5928 5928 5928 5929 5927 5927 5926 5927 5926 5924 5922 5924 5923 5922 5920 5920 5918 5915
5922 5921 5918 5918 5917 5915 5914 5914 5914 5914 5914 5914 5915 5915 5916 5917 5918 5919 5919 5920 5922 5923 5923 5925 5926 5926 5927 5928 5927 5926 5925 5925 5925 5924 5922 5920 5922 5920 5920 5917 5915 5913 5910
5925 5923 5921 5920 5918 5917 5917 5916 5916 5915 5914 5914 5915 5916 5917 5918 5919 5920 5921 5921 5922 5923 5924 5924 5926 5926 5926 5927 5925 5923 5922 5922 5922 5921 5920 5920 5919 5916 5915 5915 5913 5909 5907
5927 5926 5924 5924 5922 5921 5920 5919 5918 5916 5915 5915 5917 5918 5918 5918 5920 5920 5920 5920 5922 5924 5923 5922 5922 5923 5923 5923 5922 5921 5919 5919 5920 5918 5917 5916 5915 5913 5912 5911 5908 5907 5907
5931 5929 5928 5927 5925 5923 5922 5921 5920 5919 5918 5917 5917 5918 5918 5918 5918 5920 5921 5921 5921 5922 5921 5920 5921 5921 5921 5921 5920 5918 5916 5915 5916 5915 5914 5914 5912 5911 5909 5906 5907 5906 5905
5933 5931 5931 5930 5928 5926 5925 5924 5923 5922 5922 5921 5920 5920 5920 5921 5921 5921 5921 5922 5921 5921 5919 5918 5918 5918 5918 5917 5916 5915 5913 5911 5910 5910 5909 5909 5909 5906 5904 5904 5903 5901 5901
5935 5933 5933 5931 5929 5927 5927 5926 5926 5925 5924 5923 5923 5922 5922 5921 5922 5922 5921 5920 5918 5918 5917 5916 5915 5913 5913 5911 5910 5909 5907 5906 5905 5904 5904 5903 5902 5900 5900 5898 5898 5899 5897
5935 5935 5934 5932 5931 5930 5930 5928 5928 5927 5927 5926 5925 5924 5923 5922 5921 5920 5918 5917 5916 5913 5910 5909 5907 5905 5904 5903 5902 5902 5902 5902 5901 5899 5898 5896 5895 5895 5894 5893 5893 5894 5895
5937 5937 5935 5933 5932 5932 5932 5931 5930 5929 5928 5927 5926 5925 5924 5923 5921 5920 5918 5917 5915 5913 5912 5910 5908 5907 5905 5902 5900 5897 5893 5891 5891 5892 5891 5890 5889 5888 5888 5886 5886 5887 5889
5938 5937 5937 5936 5935 5934 5934 5933 5932 5930 5929 5928 5927 5926 5924 5923 5921 5920 5917 5915 5913 5911 5909 5907 5905 5904 5903 5900 5897 5893 5891 5890 5887 5884 5882 5883 5883 5882 5882 5881 5880 5880 5881
5940 5938 5939 5938 5937 5936 5935 5934 5933 5931 5930 5928 5926 5924 5922 5921 5919 5917 5914 5911 5908 5905 5904 5902 5899 5897 5893 5890 5886 5887 5884 5882 5880 5879 5878 5877 5877 5875 5875 5875 5874 5874 5874
5942 5941 5940 5939 5938 5937 5936 5935 5933 5931 5930 5927 5925 5923 5921 5918 5916 5913 5910 5901 5895 5893 5890 5888 5885 5882 5883 5881 5878 5876 5876 5874 5874 5873 5872 5871 5871 5870 5868 5866 5867 5866 5866
5944 5942 5941 5940 5939 5938 5937 5936 5934 5932 5929 5927 5923 5920 5918 5914 5911 5908 5903 5898 5887 5878 5873 5872 5862 5851 5866 5868 5867 5864 5867 5864 5862 5863 5863 5862 5862 5860 5860 5859 5858 5856 5856
5944 5943 5941 5941 5940 5938 5937 5936 5934 5931 5928 5926 5922 5920 5917 5914 5910 5905 5901 5896 5890 5887 5880 5873 5872 5858 5863 5861 5860 5861 5855 5851 5854 5854 5853 5851 5851 5850 5848 5848 5849 5848 5848
5943 5942 5940 5938 5936 5935 5934 5932 5931 5928 5926 5922 5918 5916 5912 5908 5906 5900 5894 5892 5887 5884 5878 5871 5866 5861 5861 5858 5855 5853 5851 5847 5846 5845 5844 5841 5840 5837 5836 5836 5838 5836 5836
5941 5939 5937 5936 5934 5932 5930 5927 5925 5923 5920 5917 5913 5909 5906 5902 5897 5893 5888 5882 5880 5876 5873 5869 5865 5860 5855 5850 5849 5846 5842 5838 5838 5836 5834 5833 5830 5827 5825 5824 5826 5827 5826
5939 5938 5937 5935 5934 5932 5929 5927 5924 5921 5918 5914 5910 5906 5901 5896 5891 5886 5881 5876 5871 5867 5864 5861 5857 5853 5849 5846 5841 5836 5832 5831 5829 5827 5823 5823 5820 5817 5816 5815 5814 5813 5812
5937 5937 5936 5935 5933 5930 5928 5925 5922 5919 5915 5911 5907 5903 5898 5892 5886 5881 5876 5871 5867 5863 5859 5854 5849 5844 5839 5835 5832 5830 5827 5825 5821 5818 5814 5812 5811 5808 5806 5804 5802 5801 5801
5936 5935 5934 5933 5932 5929 5926 5924 5920 5917 5913 5908 5903 5899 5894 5889 5883 5876 5870 5866 5861 5855 5848 5843 5839 5836 5833 5830 5827 5825 5821 5818 5813 5810 5807 5803 5801 5799 5797 5793 5791 5791 5789
5933 5933 5932 5930 5928 5926 5923 5920 5917 5913 5909 5904 5899 5894 5888 5883 5877 5872 5866 5859 5854 5849 5844 5839 5834 5830 5827 5824 5821 5818 5815 5811 5807 5802 5797 5794 5791 5782 5778 5776 5773 5774 5774
5930 5929 5928 5926 5924 5921 5919 5916 5912 5908 5904 5899 5893 5888 5883 5877 5872 5867 5862 5858 5853 5848 5842 5837 5832 5827 5823 5819 5815 5810 5807 5803 5799 5795 5790 5786 5783 5781 5776 5773 5765 5762 5760
5926 5924 5923 5921 5919 5916 5914 5910 5906 5902 5898 5893 5887 5883 5877 5872 5867 5862 5858 5854 5849 5845 5840 5835 5829 5825 5820 5815 5811 5807 5803 5798 5794 5790 5786 5782 5778 5775 5769 5763 5759 5758 5753
5921 5919 5918 5916 5914 5911 5908 5904 5900 5896 5892 5887 5881 5876 5871 5866 5862 5857 5853 5848 5844 5840 5836 5831 5826 5822 5817 5812 5807 5801 5796 5791 5787 5782 5778 5775 5771 5766 5763 5760 5757 5752 5750
5915 5914 5912 5910 5908 5905 5901 5898 5894 5890 5886 5881 5875 5870 5865 5860 5856 5852 5848 5843 5839 5835 5831 5826 5821 5816 5811 5805 5800 5794 5788 5782 5777 5772 5768 5765 5761 5758 5755 5751 5747 5745 5742
5909 5908 5906 5903 5901 5898 5895 5892 5888 5883 5879 5874 5869 5863 5858 5854 5850 5847 5842 5837 5833 5829 5825 5821 5815 5809 5803 5797 5791 5784 5778 5772 5766 5761 5756 5753 5750 5747 5745 5742 5739 5736 5733
5904 5902 5899 5897 5894 5891 5888 5884 5881 5877 5872 5867 5862 5857 5851 5847 5843 5840 5836 5831 5826 5822 5817 5812 5807 5801 5795 5788 5781 5774 5767 5761 5757 5752 5748 5744 5740 5737 5734 5731 5728 5726 5723